Wind_Speed
20 20 20 20 20 19 19 19 18 18 18 18 18 17 17 16 16 16 16 16 15 14 12 12 11 11 10 9 8 8 10 10 12 16 18 14 10 8 11 15 15 16 21 22 20 18 18 19 19 18 16 15 14 14 11 10 10 9 9 7 4 5 7 4 5 5 4 3 3 3 3 3 4 4 5 7 10 9 7 6 4 2 2 1 1 1 2 2
20 20 20 20 20 20 20 19 19 19 19 19 19 19 18 17 17 16 17 17 17 15 14 13 12 12 12 10 9 9 10 11 13 17 15 10 10 13 16 18 17 15 17 21 22 21 20 20 21 19 19 18 16 14 11 11 10 9 9 9 6 5 6 4 3 5 5 3 2 4 3 2 4 4 5 7 9 9 7 4 4 3 3 1 1 0 1 2
21 21 21 21 21 20 20 20 20 20 20 19 19 19 19 18 18 17 17 18 17 16 15 14 13 13 13 12 11 10 10 12 15 17 13 11 14 16 17 18 18 17 16 19 22 24 24 24 23 22 21 20 18 15 13 12 11 11 10 10 9 8 7 5 2 5 5 3 3 3 2 1 4 4 4 4 7 10 7 4 3 3 3 2 1 1 0 2
22 22 22 22 22 22 21 21 21 21 20 20 20 20 20 19 19 18 18 18 18 17 16 15 15 14 14 14 13 12 12 13 16 16 12 12 16 18 19 19 20 22 20 18 20 24 27 26 23 22 22 20 19 17 15 14 13 13 12 12 11 10 8 6 3 4 4 2 3 3 2 1 3 3 1 3 6 8 6 3 2 2 3 1 2 2 0 1
25 25 25 24 24 24 23 23 22 22 22 21 21 22 21 20 20 19 19 19 19 18 17 15 15 15 15 15 14 13 13 15 16 15 12 12 16 19 21 20 22 24 23 20 20 21 24 24 24 23 22 21 20 18 16 16 15 14 15 14 13 10 8 7 3 4 5 3 3 2 1 1 3 1 1 4 4 4 5 4 3 2 3 1 2 2 0 0
28 28 27 27 27 26 26 25 25 24 23 23 23 23 23 22 21 21 20 20 20 19 18 16 16 16 16 16 16 15 15 17 17 15 13 14 17 20 22 22 22 24 23 22 22 21 20 22 24 22 21 20 18 17 18 18 16 16 16 15 14 12 10 8 4 4 4 5 5 3 1 1 4 2 1 4 3 2 4 4 3 1 2 2 2 2 1 1
29 29 29 29 29 29 29 28 28 27 26 25 24 24 24 24 23 23 22 21 21 20 19 17 16 16 17 17 16 16 17 17 17 17 16 16 18 20 21 22 22 22 23 24 25 23 20 20 22 22 21 19 17 18 19 18 18 17 17 15 15 14 12 10 7 5 4 5 6 4 2 1 2 2 3 4 2 3 3 3 2 1 2 2 2 2 2 2
30 30 30 30 30 30 30 30 30 30 29 28 27 27 26 26 25 24 24 23 23 22 20 19 18 17 17 17 16 18 20 16 16 20 19 17 18 19 21 23 23 22 23 26 26 25 23 20 21 23 22 19 19 20 20 19 18 16 16 16 16 15 13 12 10 7 6 7 7 5 4 4 3 3 3 4 4 3 2 1 0 1 3 2 2 3 3 3
31 31 31 31 31 31 31 31 31 31 31 30 30 30 29 28 27 26 25 25 25 24 22 20 19 18 17 17 16 20 21 17 17 21 20 18 18 19 21 22 23 25 25 26 27 27 24 21 21 22 22 22 22 21 21 19 17 17 17 17 17 15 13 13 12 11 10 9 8 7 8 7 5 4 3 4 4 3 2 1 0 1 3 4 3 4 4 3
32 32 33 33 33 33 33 32 32 32 31 31 31 31 32 31 30 29 27 27 26 26 25 23 21 19 18 17 18 22 21 18 19 20 21 20 19 20 21 21 22 25 26 26 26 26 24 23 24 24 26 26 24 24 22 18 18 20 20 19 19 17 15 14 13 13 13 11 10 9 9 9 5 4 4 5 5 4 2 0 1 2 3 4 4 4 5 4
32 33 33 33 34 34 34 34 34 34 33 33 32 32 32 33 33 32 31 29 28 28 27 26 24 22 20 17 20 25 22 18 19 20 22 22 20 20 21 21 21 23 26 27 26 26 27 27 28 29 29 28 27 26 24 20 20 21 21 21 20 19 17 15 13 12 13 12 12 10 11 11 7 6 7 6 6 4 3 1 2 2 3 4 4 5 6 6
32 32 33 33 33 34 34 35 35 35 35 35 35 34 33 33 33 34 33 33 31 31 29 28 26 24 21 19 23 27 23 19 19 20 21 23 23 22 21 22 22 22 24 26 27 28 29 30 31 30 29 28 29 28 24 22 22 22 22 21 20 19 18 16 14 12 12 13 14 13 13 13 10 10 9 6 6 6 3 0 2 2 3 3 4 6 5 5
32 32 32 32 33 33 33 34 35 35 36 36 36 36 36 35 35 34 34 34 34 34 32 30 28 27 23 22 27 28 24 21 18 18 21 25 26 24 23 23 23 22 22 24 28 30 30 31 31 29 29 30 30 28 26 25 25 25 24 22 21 19 17 16 16 14 12 14 16 15 14 14 12 11 10 8 7 7 3 1 2 3 4 3 3 5 5 5
32 33 32 32 33 33 33 33 34 34 35 36 36 37 37 37 36 36 36 35 36 35 35 34 31 29 24 25 32 30 25 21 18 19 23 27 28 26 25 25 24 24 23 24 27 30 31 32 32 32 32 30 29 30 30 29 29 28 26 24 22 20 17 17 18 17 15 17 17 15 14 16 14 9 10 11 9 7 4 3 2 3 3 1 2 4 5 5
34 35 35 34 34 34 34 34 34 34 35 35 36 37 37 37 37 37 38 38 38 37 37 36 34 32 26 27 35 33 27 24 22 25 26 27 29 27 27 26 25 25 25 25 27 29 32 34 34 33 31 29 31 32 32 32 31 29 26 23 20 18 17 17 19 19 19 18 17 14 13 16 15 11 12 13 10 8 6 4 5 3 2 2 1 3 4 6
36 37 37 37 36 37 36 35 35 35 35 36 36 37 37 37 37 37 38 39 40 39 38 37 36 35 30 30 35 35 32 29 27 29 26 25 28 27 27 28 27 27 27 27 27 29 32 34 35 33 32 33 33 31 31 34 32 28 23 19 17 16 17 18 17 18 21 21 18 16 13 14 15 14 14 13 9 9 9 6 7 5 4 4 2 2 3 5
39 39 40 40 39 39 39 38 38 37 37 37 37 37 37 37 37 37 37 39 40 41 41 39 38 37 34 34 36 36 36 33 30 29 26 25 28 28 27 28 29 28 29 30 30 30 32 33 34 34 35 35 33 31 34 34 31 26 21 18 17 16 18 19 17 17 21 22 18 15 12 13 17 15 14 12 9 8 10 9 7 6 6 5 3 2 2 4
41 42 42 43 42 42 42 41 41 40 40 40 39 38 38 38 37 36 36 38 40 41 42 41 40 38 36 36 37 37 38 37 33 31 29 28 29 30 27 28 31 31 31 32 31 31 31 31 32 35 36 36 34 33 33 29 24 22 20 18 18 17 18 19 17 16 18 20 19 16 12 12 18 17 14 12 9 10 12 11 6 5 7 7 4 2 1 3
43 43 43 44 45 44 45 45 44 44 43 43 42 41 40 39 38 37 37 38 39 41 42 42 41 39 36 36 38 40 40 39 37 33 32 31 31 32 30 29 32 34 34 33 31 31 31 31 33 34 33 32 31 30 28 25 24 23 21 20 19 17 17 18 18 18 19 19 20 19 14 9 17 19 15 14 11 11 13 10 5 3 7 8 7 4 3 2
44 44 44 45 46 46 46 46 46 46 46 46 46 45 44 42 40 39 38 39 41 41 40 41 41 39 36 37 40 41 41 41 39 37 35 35 35 35 34 32 33 35 35 32 31 31 32 34 33 28 25 27 29 29 28 28 27 25 24 23 21 19 18 20 19 19 20 18 19 20 14 7 15 19 16 16 14 11 13 10 6 4 6 7 8 6 3 2
46 46 45 45 46 47 47 47 47 47 47 48 48 48 47 45 43 42 39 41 45 42 39 40 40 38 34 35 41 42 42 43 41 40 38 38 39 39 37 35 34 34 32 31 33 34 36 35 27 21 23 26 29 31 31 30 29 28 26 24 24 22 20 21 19 19 20 18 19 20 13 7 15 20 18 18 13 10 12 10 7 6 5 6 8 7 4 1
47 47 47 46 46 47 47 47 47 47 48 48 49 49 49 48 46 45 42 42 45 44 42 42 40 38 34 35 42 44 43 44 42 41 41 41 42 42 39 37 36 32 30 34 37 39 39 30 20 22 25 27 29 32 33 32 31 30 28 28 27 23 22 25 23 20 20 18 19 19 12 7 15 22 21 19 12 7 10 11 9 8 6 6 8 8 5 2
47 47 47 46 46 47 47 47 47 47 47 47 48 48 49 49 49 48 46 45 47 46 46 46 42 40 36 37 44 46 44 44 43 42 43 43 43 43 42 40 37 33 33 37 38 39 35 22 20 26 28 28 30 32 33 34 34 33 31 31 27 23 25 29 26 23 20 17 15 14 10 9 17 26 24 20 13 9 10 11 11 11 8 7 9 9 7 5
46 46 46 45 44 45 45 45 46 46 47 47 47 48 48 48 49 49 48 49 50 48 49 49 46 43 39 39 46 48 45 44 44 44 44 44 43 44 45 43 40 37 37 37 36 36 30 22 26 31 30 29 31 32 34 36 36 35 34 31 26 23 25 26 24 25 24 20 17 15 13 14 21 28 26 21 15 12 14 14 14 13 10 11 11 10 9 8
45 44 44 44 42 42 43 43 43 44 45 45 45 46 47 48 48 49 48 48 50 51 51 50 48 48 45 42 46 49 47 44 43 44 45 46 45 45 46 45 44 42 40 38 38 36 29 28 33 34 32 32 32 33 33 34 35 36 36 31 25 23 24 26 28 29 29 26 22 21 22 22 24 28 28 25 21 15 17 18 16 13 13 15 13 11 10 10
42 41 41 42 40 39 40 40 39 40 42 43 43 44 45 46 46 48 47 46 48 50 52 52 51 50 48 46 47 48 49 46 43 45 46 47 47 47 47 48 47 45 42 40 40 38 31 31 37 37 35 33 32 33 32 32 34 35 34 29 27 26 26 30 33 34 33 28 23 23 24 24 27 31 29 28 25 18 18 18 15 13 16 17 15 12 10 10
38 37 37 39 38 35 35 36 36 37 37 38 40 41 42 42 43 45 44 43 45 48 49 51 51 50 50 49 49 48 49 47 45 45 46 45 46 47 48 50 49 47 45 44 45 41 34 35 39 38 36 34 34 33 30 31 32 30 29 29 31 30 28 31 36 37 33 28 28 28 23 23 29 33 31 28 26 22 19 17 14 14 16 17 16 14 11 10
34 35 35 36 37 35 34 33 33 34 34 33 33 35 35 35 38 41 40 39 41 43 45 47 49 50 51 50 50 50 51 49 45 46 46 45 45 46 48 50 50 49 48 48 46 40 35 36 38 36 36 37 34 30 28 30 31 26 26 32 35 33 31 32 37 38 34 32 35 33 28 28 31 30 30 30 29 28 23 17 14 14 13 14 17 16 12 11
33 35 35 37 38 38 37 35 32 32 31 30 28 28 29 29 32 35 35 36 37 40 41 42 43 46 50 51 51 52 53 51 49 49 50 49 48 47 48 48 50 50 50 50 47 42 38 38 38 37 38 37 32 29 29 32 30 25 27 33 36 36 34 35 40 40 38 40 39 36 33 33 34 32 31 33 33 32 25 16 14 13 12 13 16 16 14 13
35 38 38 38 39 39 39 38 34 32 30 28 28 28 28 29 30 31 31 32 34 36 37 37 38 41 45 49 51 53 54 54 54 54 54 53 51 49 48 47 48 51 51 51 51 47 43 42 42 41 39 37 34 32 32 33 30 27 30 33 37 40 38 38 42 41 42 46 42 37 35 34 36 37 36 36 33 28 20 13 13 14 14 12 15 17 17 15
39 40 40 39 39 38 38 39 37 35 32 30 30 31 32 33 33 31 30 31 32 31 30 33 35 37 42 48 51 53 54 54 56 57 58 57 54 53 52 50 49 52 54 54 53 51 49 48 47 44 41 39 38 36 35 34 32 31 33 34 39 43 42 43 46 46 49 50 43 39 37 37 40 40 39 38 32 26 20 15 14 14 13 12 12 15 17 16
41 42 41 40 40 40 39 39 38 36 35 34 33 34 34 34 34 32 30 31 31 29 27 29 31 34 42 47 50 53 55 54 55 58 60 60 59 57 55 53 52 54 56 57 56 55 52 50 49 46 43 42 41 39 39 38 36 35 35 37 41 45 46 48 50 51 54 52 44 41 41 42 41 39 39 39 35 30 25 18 17 15 11 10 10 15 16 15
43 43 42 41 41 41 40 39 38 37 36 35 34 33 32 32 32 31 29 28 29 29 28 28 28 33 41 45 49 53 54 54 55 56 59 62 62 59 56 53 52 53 54 54 56 56 53 51 51 48 46 45 44 42 42 42 40 39 38 39 42 47 50 52 52 54 55 51 44 42 42 45 44 37 36 37 34 32 28 21 19 19 15 11 10 14 17 16
44 43 42 42 41 42 41 39 37 36 34 33 32 31 30 30 29 28 27 26 27 28 27 26 27 34 40 44 49 52 52 53 55 57 60 61 61 61 58 53 49 48 51 51 53 55 54 53 52 50 48 47 46 44 43 41 39 39 37 36 39 43 46 48 49 50 52 48 43 42 44 47 46 39 32 31 32 32 29 23 21 23 22 17 12 14 19 18
45 44 43 42 41 40 40 38 36 34 32 31 31 31 30 29 28 26 26 27 26 27 25 24 26 34 43 46 49 52 51 51 55 57 60 61 60 62 63 58 53 51 50 50 50 52 54 54 51 49 49 47 44 44 42 40 40 38 37 37 38 37 39 44 47 47 47 47 44 44 47 48 45 40 33 30 34 35 32 26 24 26 25 21 15 14 20 20
44 43 42 41 38 37 37 36 34 33 32 31 31 31 30 29 29 28 28 28 28 27 25 23 24 31 44 48 49 52 52 51 54 57 59 61 60 61 65 64 62 61 58 57 56 54 56 57 53 49 50 48 44 42 43 43 42 40 39 40 37 33 36 41 44 44 44 46 44 43 47 48 44 41 37 35 36 36 35 31 27 27 26 25 19 15 20 20
41 41 40 38 36 36 36 36 35 34 34 33 32 31 31 30 30 30 29 30 30 29 27 25 24 26 39 49 49 51 54 52 54 57 59 60 59 60 63 65 64 63 62 62 60 58 60 61 57 53 51 49 46 42 42 43 43 42 41 39 35 34 36 37 39 42 44 45 43 42 46 47 45 40 37 37 39 38 38 35 30 29 30 29 24 18 19 20
38 39 38 37 35 35 37 37 37 37 37 37 36 34 32 32 31 29 30 30 30 29 27 27 25 24 30 47 51 49 53 55 55 57 59 60 60 59 60 62 63 63 63 63 61 59 62 64 61 57 54 50 46 44 43 45 44 42 40 37 37 38 38 37 39 40 41 41 40 40 43 45 44 38 33 37 40 40 39 35 32 32 34 33 29 22 19 18
35 37 37 37 37 36 36 36 36 36 36 36 37 36 35 33 32 30 29 29 29 27 26 26 26 24 24 40 55 51 52 57 57 57 58 59 61 59 58 58 60 61 62 64 63 60 62 65 61 57 55 49 45 45 47 48 46 44 43 41 39 38 38 37 38 37 36 38 37 36 37 39 39 35 31 34 38 39 39 37 35 34 34 34 32 26 21 20
35 36 36 37 38 37 36 36 35 34 33 33 35 35 34 33 31 29 27 27 27 27 25 24 25 25 24 32 53 57 53 57 61 59 58 59 60 59 58 58 58 59 61 64 66 62 62 65 62 57 56 52 46 47 49 48 47 47 48 47 43 42 40 37 37 37 35 36 35 33 33 31 29 27 27 29 32 35 36 35 34 34 32 31 32 28 22 22
35 36 37 37 37 36 36 35 34 33 33 33 34 33 32 31 29 27 26 25 25 26 26 23 23 25 25 26 44 59 56 57 62 62 58 58 58 57 58 59 57 58 59 62 66 64 62 66 64 58 57 57 52 50 49 46 46 46 47 47 45 44 43 41 41 39 37 37 35 32 30 24 20 22 23 23 24 27 28 29 30 30 27 26 30 28 23 21
36 38 39 38 36 35 35 34 33 33 34 35 35 32 29 28 28 28 26 23 23 25 24 23 23 24 25 26 34 52 59 58 61 63 59 56 56 57 58 60 58 57 58 60 64 64 62 65 65 58 56 57 55 53 50 45 43 44 44 44 44 44 44 43 42 39 37 38 34 31 28 21 18 21 23 22 21 21 23 26 27 27 25 24 28 28 22 21
36 38 39 38 37 36 34 33 32 33 35 36 35 30 26 26 27 26 24 21 22 23 23 24 23 22 24 26 28 39 53 59 59 62 60 56 55 55 57 60 60 59 59 60 62 63 62 64 64 58 55 54 54 55 54 47 41 42 43 42 42 44 44 42 41 37 36 36 32 30 29 22 18 21 23 21 18 17 20 24 24 24 22 23 26 27 23 22
36 37 39 40 39 38 35 33 31 32 34 35 32 27 23 22 23 22 21 20 21 23 22 23 22 21 22 25 27 31 42 54 59 60 59 56 54 53 56 60 61 61 61 60 61 62 62 64 64 58 52 50 51 53 54 49 42 41 42 42 42 43 42 42 40 37 37 35 31 30 29 22 19 21 21 18 17 19 21 22 22 21 21 20 23 24 23 25
37 37 38 40 40 39 37 35 33 32 32 33 30 24 21 20 20 20 20 19 21 21 21 22 21 21 22 23 26 29 33 46 58 61 59 57 53 50 54 60 60 61 63 63 62 62 62 64 65 59 52 51 52 53 52 49 45 41 39 40 42 43 44 43 40 39 40 37 32 32 29 22 22 23 19 15 17 21 22 22 20 19 19 17 18 20 20 25
39 39 39 40 41 41 40 37 35 33 32 32 28 22 19 18 17 17 17 17 18 19 19 21 22 22 23 25 27 28 29 37 51 60 60 58 54 50 52 57 59 59 64 66 64 63 64 65 66 62 57 55 54 55 53 51 49 45 41 39 41 43 44 42 40 41 40 37 34 33 28 24 24 23 16 15 19 21 22 22 18 16 16 16 16 18 19 22
38 40 41 41 42 42 41 37 35 33 31 31 27 20 15 13 13 13 13 14 16 17 17 19 22 23 24 26 27 28 28 31 41 53 59 60 56 51 49 54 57 58 63 68 66 64 64 66 66 65 61 58 55 54 53 51 50 49 46 42 40 42 45 44 42 41 38 36 35 32 28 27 27 21 14 15 20 21 23 22 16 14 15 14 13 14 17 21
37 39 42 43 42 41 39 36 34 32 30 30 27 19 12 10 10 10 12 13 14 16 16 18 21 22 22 24 24 25 26 29 33 42 54 60 59 54 49 49 54 58 61 67 68 66 65 66 67 67 63 58 55 53 52 52 51 50 48 44 40 42 46 46 44 40 36 37 36 31 28 28 29 24 17 15 20 21 22 23 19 17 17 14 11 13 16 19
37 37 40 43 42 40 38 35 32 31 29 29 26 18 11 8 9 10 11 14 16 17 18 18 20 20 20 21 22 23 24 27 30 33 45 58 60 57 50 45 50 57 61 67 69 68 67 67 68 68 64 59 57 55 53 53 53 51 50 46 40 40 45 46 43 39 36 36 33 29 28 28 30 29 23 18 22 24 24 25 25 24 22 18 14 13 15 18
36 36 38 41 42 40 38 35 32 29 29 28 25 18 11 7 7 8 11 15 17 18 18 19 20 19 18 19 21 22 21 24 27 27 36 53 60 59 53 44 45 52 59 66 70 69 69 68 67 68 66 61 59 56 51 51 52 51 50 47 40 37 42 46 44 39 36 34 29 27 27 26 27 31 31 29 29 29 29 30 29 28 25 20 15 13 14 18
36 36 36 39 41 40 38 36 32 29 28 27 24 18 11 8 7 8 12 15 16 16 17 18 18 17 17 18 20 21 20 21 24 24 29 47 58 59 56 45 41 45 52 63 71 71 70 70 67 68 67 64 61 55 48 47 49 49 47 45 41 37 39 46 47 42 36 32 27 26 26 23 23 29 34 37 38 36 35 33 31 30 27 20 15 14 14 17
36 35 35 38 41 40 38 36 33 30 27 26 24 19 12 10 11 12 13 14 15 17 17 17 16 15 16 18 19 19 19 19 22 23 25 39 54 59 59 50 41 42 47 56 68 72 70 69 68 69 70 67 62 54 47 45 47 50 49 48 46 43 40 44 50 46 38 32 27 25 25 23 24 27 32 37 41 40 39 36 33 31 27 20 17 16 14 15
Wind_Direction
295 295 294 294 293 292 291 290 289 289 289 290 291 291 291 289 286 282 279 276 273 270 269 270 271 268 263 257 254 250 247 245 238 232 230 227 223 221 209 213 223 213 212 213 207 210 214 215 216 215 215 214 214 209 202 204 204 205 206 204 197 207 229 212 135 155 160 137 143 112 105 120 108 104 97 88 85 83 86 91 90 96 92 65 89 152 182 190
294 294 293 293 292 292 290 289 287 286 285 286 287 288 289 289 287 284 281 277 274 269 265 264 264 264 263 257 252 249 245 243 240 238 237 233 226 224 218 213 220 220 213 214 210 210 213 215 216 216 216 216 217 214 207 209 209 212 212 208 205 211 241 243 170 193 198 186 174 100 94 109 105 93 68 79 93 93 94 95 93 93 74 28 332 172 171 173
291 291 290 291 290 290 289 288 287 285 283 282 282 283 284 285 285 285 282 279 276 271 265 260 259 259 260 258 253 247 244 243 242 243 241 234 228 226 225 217 217 221 216 215 213 212 214 216 215 215 217 217 216 215 208 208 210 212 215 213 212 209 226 254 218 196 194 167 149 122 123 93 83 79 57 71 103 108 108 103 105 102 71 10 345 21 170 173
288 288 287 287 287 287 287 286 286 284 283 281 280 279 279 280 281 282 281 280 277 274 268 260 257 256 256 256 253 248 243 244 243 243 241 233 228 226 225 217 213 218 219 217 216 215 217 219 219 218 220 219 217 217 211 206 206 207 214 215 215 211 216 246 230 193 208 158 145 143 146 95 75 65 32 78 102 113 117 109 117 110 79 30 25 40 319 189
285 284 284 284 284 284 284 284 283 283 282 281 280 279 277 276 276 277 277 278 277 275 271 264 257 255 254 252 251 249 245 245 245 243 239 233 230 227 225 219 212 216 219 219 219 220 220 220 223 224 223 224 221 219 216 212 206 202 212 216 216 209 207 232 201 171 229 236 218 197 141 89 97 66 350 93 101 120 135 131 140 112 80 66 60 73 124 159
282 281 281 281 281 280 281 280 280 280 280 280 279 279 277 275 274 273 273 274 275 274 272 267 259 254 253 251 248 248 245 246 248 245 235 231 229 226 226 224 217 216 218 220 221 223 223 219 222 225 225 227 224 220 218 216 208 202 208 215 218 210 203 221 184 157 231 252 254 248 229 89 122 156 81 103 126 148 154 149 151 125 74 83 80 92 116 123
281 280 279 278 278 277 277 277 277 277 277 277 277 277 276 276 274 273 271 271 271 272 271 268 263 256 253 251 248 246 244 244 250 248 235 229 230 227 225 225 222 219 217 219 222 225 225 221 221 223 224 226 224 222 220 218 214 208 206 210 218 214 203 207 185 171 220 237 248 251 242 260 158 167 116 121 167 175 173 166 159 84 63 82 75 71 80 115
281 280 280 278 278 276 275 274 274 274 273 273 273 274 274 274 273 272 272 270 269 269 268 267 264 259 255 252 249 245 243 240 245 247 238 230 234 233 227 225 223 221 219 218 220 222 223 219 217 220 223 224 220 222 224 220 217 217 213 209 214 214 205 199 184 179 219 235 242 249 248 247 211 174 151 148 161 182 208 207 194 22 51 79 77 57 56 95
282 281 280 279 278 277 276 274 273 272 271 270 270 270 270 271 271 270 270 269 269 267 265 264 262 259 256 254 251 247 243 235 236 245 244 233 232 235 232 227 224 222 220 220 220 221 222 219 215 217 220 221 220 222 226 221 216 219 220 215 213 210 206 204 191 189 218 236 236 239 244 236 206 181 183 166 161 195 246 290 322 26 42 65 67 48 45 69
282 281 280 279 278 277 276 275 273 272 271 269 268 267 266 267 267 267 267 267 267 266 265 262 260 258 255 254 253 250 244 233 231 239 244 237 229 231 233 231 227 225 223 222 222 222 222 220 217 216 216 218 219 222 227 222 216 219 219 216 214 208 202 205 202 198 211 223 226 232 241 238 213 192 196 168 168 191 187 301 349 31 38 58 59 37 32 38
284 283 281 280 278 277 276 274 273 272 271 269 268 266 265 264 264 264 264 264 264 264 264 262 260 257 253 251 252 251 245 234 230 233 241 241 233 229 232 232 229 228 226 224 223 222 221 220 219 217 217 218 219 223 227 224 221 222 223 220 218 212 201 200 203 203 205 211 218 225 232 235 220 212 213 178 173 190 154 143 317 350 19 42 43 32 27 29
287 285 283 282 280 278 276 275 273 272 270 269 267 266 264 263 263 262 262 261 261 261 261 260 259 256 253 250 250 250 246 237 230 230 238 241 236 229 228 230 230 228 227 226 223 223 221 221 222 220 220 220 220 224 226 227 228 226 227 226 223 219 206 196 196 199 200 202 211 220 226 232 223 211 215 205 189 187 167 155 275 300 348 12 20 30 31 35
289 287 286 284 282 280 278 276 274 272 271 269 267 265 264 262 262 261 260 259 259 259 259 258 257 255 251 249 251 249 246 241 235 231 234 238 237 231 227 226 228 227 225 225 224 223 223 223 225 223 222 222 222 224 222 224 229 229 229 229 227 225 213 200 195 195 198 201 210 219 225 233 231 208 198 200 182 170 183 249 252 292 329 351 11 28 38 48
293 290 288 286 285 283 280 279 277 275 273 270 268 265 263 261 260 260 259 258 257 256 256 256 255 254 249 246 251 250 246 243 240 236 232 234 235 232 229 225 225 228 225 225 225 224 224 225 225 223 222 222 222 225 221 220 224 226 226 226 224 222 213 204 199 199 204 208 212 217 222 229 233 221 199 191 176 172 198 248 259 285 307 311 23 25 35 45
295 293 291 289 287 285 283 281 279 277 275 273 270 267 265 262 260 258 258 257 256 255 254 254 252 252 246 243 250 252 246 240 235 235 233 234 236 231 231 229 224 226 227 226 226 225 225 226 226 226 224 222 222 224 225 225 226 227 226 225 222 216 207 203 202 203 207 215 215 208 216 231 231 220 212 203 190 186 190 226 252 247 257 249 6 12 26 37
297 295 293 291 289 287 284 282 281 279 276 275 273 270 267 264 261 258 257 257 256 255 253 252 250 250 245 240 247 252 248 241 235 235 235 239 242 235 231 232 228 227 227 227 226 226 226 226 227 227 225 223 222 222 225 229 231 232 232 231 227 217 206 205 205 202 205 214 213 201 205 233 236 220 214 211 199 191 189 215 241 235 246 254 272 332 13 35
297 295 294 292 290 288 286 284 282 280 278 275 273 272 269 267 263 260 258 256 256 255 253 251 249 247 244 240 243 248 249 245 239 237 236 238 242 240 232 230 232 229 227 227 226 226 228 228 227 227 227 227 225 222 224 228 231 234 237 234 230 219 206 205 205 202 208 216 214 198 197 228 241 232 221 212 198 189 184 192 219 236 251 253 253 286 357 30
295 294 292 291 289 288 286 284 282 281 279 276 274 272 270 268 266 263 261 258 255 254 253 250 248 246 243 241 241 243 246 246 241 238 238 238 242 244 237 230 231 230 228 228 226 227 228 229 228 227 228 228 227 225 227 232 234 235 237 235 231 221 209 207 204 202 209 217 214 196 187 221 241 240 234 221 194 170 168 172 193 249 265 262 264 279 317 13
294 292 290 289 287 286 285 283 282 280 279 277 275 272 270 268 266 264 263 261 257 254 252 250 248 246 244 242 240 240 242 244 241 237 236 237 240 243 240 233 232 231 230 229 228 229 229 229 228 228 230 231 233 232 232 233 233 232 230 229 229 221 210 207 205 202 200 209 217 200 180 214 245 246 244 239 218 179 167 161 161 253 272 268 274 293 303 348
295 292 290 288 286 284 283 281 280 279 278 276 275 273 271 268 266 264 263 263 261 255 253 252 249 246 244 244 242 239 239 241 240 237 233 234 236 238 239 236 233 233 232 231 230 231 230 230 229 229 234 237 237 236 233 229 227 227 223 220 221 216 205 204 207 207 200 203 209 194 176 208 251 256 255 249 237 196 172 162 167 224 254 261 270 286 302 342
297 294 292 289 287 284 282 280 279 277 276 275 274 273 271 268 266 264 262 264 264 258 253 253 250 246 243 244 243 239 237 238 238 236 233 232 235 236 236 237 236 235 234 233 231 231 231 230 229 229 231 233 233 233 231 228 225 224 221 216 214 209 198 196 202 210 210 201 187 180 173 201 248 262 263 251 235 192 178 177 188 214 224 251 263 268 280 308
298 296 293 291 289 286 283 281 279 277 275 273 272 271 270 269 266 263 260 257 258 259 256 253 249 244 239 240 243 239 235 236 236 236 234 232 233 235 236 237 238 236 234 233 231 231 233 230 225 226 227 227 227 228 228 226 225 223 221 217 213 205 194 190 189 198 211 204 186 180 173 186 244 262 264 254 238 204 202 197 200 217 221 247 262 261 265 256
299 297 294 292 291 288 286 284 281 278 276 274 271 269 268 268 266 265 262 257 255 256 257 255 250 245 237 236 241 239 234 234 234 234 234 232 232 234 235 235 236 235 233 234 234 235 235 229 225 228 227 225 226 226 225 223 223 222 220 218 213 203 202 199 187 183 196 201 193 191 185 192 239 257 264 259 246 222 218 213 216 226 228 243 260 265 262 250
301 299 296 294 294 292 289 287 285 282 279 276 273 270 267 265 263 263 262 259 257 255 254 255 253 250 241 234 238 240 235 232 231 231 232 232 230 232 234 234 233 232 232 235 237 237 233 221 222 228 226 225 226 225 224 222 220 220 220 218 210 203 210 210 190 178 185 194 193 197 209 213 228 248 261 266 261 238 225 223 222 226 230 235 248 262 262 254
303 302 300 298 298 297 294 292 290 287 283 281 278 274 270 266 263 259 258 257 256 255 254 253 251 251 246 238 237 239 237 233 232 232 231 231 230 229 231 232 231 230 231 232 235 235 228 218 221 225 223 222 224 225 226 224 221 220 219 215 208 204 209 205 187 179 186 193 190 196 214 219 224 240 253 265 270 251 231 228 221 220 227 230 238 251 256 258
307 306 305 303 304 305 301 299 297 294 290 287 284 280 275 272 267 261 259 258 254 252 252 251 249 249 247 242 239 239 238 234 232 232 230 229 229 227 228 230 230 230 229 230 232 231 223 218 221 224 222 220 222 223 224 224 223 221 218 213 207 205 207 201 188 185 190 192 193 203 215 220 226 237 244 257 265 254 236 232 227 223 221 225 232 232 238 258
311 311 311 310 309 310 308 305 303 300 297 293 289 286 282 279 274 267 264 264 257 251 251 250 249 248 246 243 239 238 238 235 231 231 231 230 229 227 227 228 229 228 228 227 228 226 220 220 222 223 222 221 221 221 222 224 225 221 214 210 208 205 204 201 195 193 191 187 193 204 216 222 228 236 242 250 257 254 242 235 236 234 222 220 223 215 218 248
316 316 316 315 313 313 311 309 307 303 300 296 292 290 288 286 282 274 271 270 261 253 251 250 248 246 245 243 239 236 236 233 228 226 227 228 228 227 227 228 228 228 227 227 227 224 221 223 225 225 224 223 222 221 223 227 226 218 210 210 209 205 200 198 199 195 189 190 195 197 206 221 228 233 240 246 251 251 247 242 239 237 232 222 213 208 210 230
320 319 319 317 315 314 312 309 307 304 299 295 291 291 292 293 290 283 279 275 263 254 251 249 246 243 241 241 238 234 232 229 223 221 222 223 223 223 223 225 228 228 227 228 227 223 220 221 224 224 223 223 221 217 220 226 224 214 210 210 207 205 199 196 199 194 190 197 198 194 198 213 225 229 233 240 245 247 249 251 246 248 255 230 206 207 210 216
320 318 318 317 315 314 312 310 308 304 299 292 287 289 293 295 293 289 287 279 265 256 251 246 243 240 237 236 234 232 230 227 223 219 219 219 219 219 219 221 225 226 226 226 225 221 218 218 220 221 220 219 217 213 217 223 220 212 210 208 205 205 199 196 199 195 197 204 199 193 197 206 218 225 230 237 241 246 250 253 256 263 264 235 203 206 210 211
319 318 318 316 315 313 311 310 308 305 300 294 289 290 292 295 295 294 291 282 269 260 253 246 240 237 234 231 230 231 228 225 223 220 218 217 216 216 216 217 220 222 222 223 223 221 217 215 217 217 217 216 214 210 212 218 217 211 209 206 204 204 199 196 198 197 204 209 199 192 199 206 213 217 225 237 243 246 245 242 252 264 262 240 209 202 206 209
318 317 316 315 313 312 311 310 307 304 300 296 293 291 292 293 293 292 290 285 278 269 258 249 240 235 234 230 228 228 225 220 218 220 221 221 218 216 216 216 217 220 220 220 222 221 217 216 216 215 215 215 213 209 209 213 213 210 208 205 203 203 200 198 199 201 208 210 199 194 201 211 219 216 216 228 237 239 239 239 249 256 252 241 212 191 194 200
315 314 313 312 311 309 309 310 308 305 301 298 295 293 292 290 288 286 283 281 282 278 268 255 240 232 234 231 226 224 222 216 214 215 218 220 219 217 215 215 216 220 221 221 224 222 216 215 216 215 214 216 214 209 208 211 211 209 208 208 205 203 203 204 202 204 211 211 203 200 208 219 228 226 217 221 230 235 239 241 245 249 247 243 221 192 188 190
314 313 312 311 310 308 308 309 307 304 301 298 295 293 290 287 284 283 279 278 281 281 276 262 241 228 229 229 223 220 217 212 209 209 211 214 216 215 212 209 210 215 220 222 225 224 218 214 214 215 215 215 214 210 209 211 213 211 211 214 214 211 211 213 212 212 215 215 207 206 218 228 231 234 230 225 226 231 237 235 232 241 246 246 233 204 192 189
316 314 313 311 310 309 309 308 305 302 299 297 295 292 288 284 281 277 275 277 278 277 275 266 245 227 223 224 222 217 212 207 205 204 205 209 212 213 212 208 205 208 214 217 218 220 219 213 211 216 217 215 215 213 209 210 212 211 210 213 218 218 218 217 218 220 220 218 212 211 224 232 233 236 235 225 222 227 234 231 223 229 238 244 240 210 194 190
320 318 315 313 312 312 310 307 303 301 298 296 294 289 285 282 278 275 273 274 274 273 274 270 254 234 223 220 219 216 209 203 201 201 202 204 207 209 211 210 207 208 210 212 212 215 217 210 206 213 217 214 215 215 213 212 212 210 210 213 218 219 218 217 220 224 224 223 220 219 225 231 232 235 233 226 225 229 236 237 230 228 231 242 246 218 196 194
326 323 322 321 319 314 310 306 303 300 297 295 292 288 285 281 277 276 274 273 272 273 274 270 263 248 228 217 214 214 209 202 198 197 199 201 203 206 208 209 209 208 209 210 209 212 214 208 204 209 212 212 212 214 215 215 214 212 212 215 216 213 214 217 220 223 225 227 227 224 226 230 233 234 232 230 229 230 237 244 244 241 237 242 248 232 213 209
333 332 336 337 331 322 316 312 308 303 299 296 293 290 287 282 278 275 273 271 271 271 273 270 268 268 241 218 211 209 206 203 197 194 196 198 199 202 204 208 209 209 210 211 209 211 212 208 204 205 207 208 210 211 213 213 213 214 214 214 214 214 215 216 218 221 224 227 227 225 226 229 233 235 231 230 231 232 239 246 249 248 246 249 251 242 231 221
346 346 349 348 344 339 334 329 323 317 309 301 295 290 286 283 279 275 270 268 269 266 268 269 268 276 262 226 215 209 202 201 198 193 194 197 197 199 201 205 208 208 209 211 210 211 212 210 205 203 203 203 206 210 211 210 210 211 212 212 212 217 220 221 222 224 225 227 227 226 226 227 230 232 230 230 233 236 240 246 250 252 251 253 253 245 234 226
348 346 345 344 342 341 339 335 333 331 324 312 303 294 287 284 281 276 268 262 265 262 261 267 269 274 276 241 224 215 202 197 198 194 193 195 196 197 199 202 205 206 206 208 210 210 212 212 206 202 203 200 200 206 208 209 211 210 211 210 208 211 216 218 223 225 226 229 230 229 228 224 224 226 225 227 230 232 236 240 245 248 248 247 247 244 231 221
341 340 339 340 339 338 335 333 332 331 327 319 311 300 291 285 281 274 265 256 259 260 259 264 267 270 278 260 234 223 210 199 197 195 193 193 194 196 197 199 202 205 205 207 209 208 209 211 206 202 204 202 199 203 204 208 214 215 216 215 210 210 212 213 218 220 224 230 232 232 231 224 218 220 221 221 223 223 223 225 230 237 239 236 235 234 223 212
336 336 337 339 339 337 334 331 331 328 326 323 315 304 294 287 279 271 263 257 256 260 261 263 265 268 275 272 247 231 224 214 202 195 192 192 193 196 197 198 200 203 204 205 206 206 207 210 207 202 205 205 201 201 201 204 214 220 222 221 217 215 214 215 219 219 221 227 230 234 233 224 216 219 218 215 216 217 213 212 220 229 231 227 223 220 209 199
334 333 334 337 339 338 335 331 330 328 327 326 317 305 297 290 281 270 263 261 258 258 261 261 262 267 272 272 258 240 236 229 211 197 194 192 191 194 196 197 198 201 203 203 204 205 206 209 207 203 205 206 203 202 200 200 209 218 222 222 221 221 220 221 224 224 225 228 229 232 230 220 217 224 224 218 214 213 210 209 215 224 225 220 217 213 198 187
333 332 333 336 339 339 336 333 331 329 329 328 319 307 300 293 283 268 258 258 258 256 258 259 261 267 270 268 261 252 247 237 220 206 201 196 191 192 194 195 197 199 202 202 202 202 203 206 206 201 201 202 199 200 200 197 201 213 219 219 220 222 223 223 223 223 225 226 226 230 228 216 212 222 229 227 211 204 211 211 211 218 223 218 216 213 199 186
334 333 332 335 338 338 337 336 334 333 332 330 322 309 299 292 281 264 252 254 256 256 258 260 260 263 266 266 264 262 257 244 228 217 211 204 194 189 190 192 195 198 201 201 200 201 201 203 204 198 193 193 193 195 198 197 197 204 212 216 218 220 222 222 221 221 222 220 218 222 222 211 209 218 223 219 207 208 218 219 213 216 221 217 215 214 203 192
336 336 333 333 336 337 337 338 335 335 337 334 325 311 299 290 278 265 257 257 259 260 261 263 264 264 265 268 267 265 263 252 237 226 221 214 201 189 186 189 193 197 200 200 200 200 200 200 201 197 192 192 193 193 197 198 197 198 203 208 213 218 220 220 220 222 223 221 217 218 216 208 209 216 213 204 209 220 228 223 213 212 218 216 213 211 204 196
338 337 335 335 336 337 338 339 336 335 339 338 329 317 306 296 280 270 267 264 263 264 266 269 270 270 271 272 270 264 261 257 246 234 228 221 207 192 184 186 191 196 199 200 199 199 200 200 199 196 192 192 192 191 195 198 198 198 199 199 204 212 217 219 221 222 223 223 219 216 212 207 206 206 198 200 214 229 237 232 216 204 213 217 215 212 207 198
343 340 338 338 339 338 338 339 337 336 339 342 335 323 313 302 285 277 274 269 267 269 272 277 277 276 277 276 272 266 259 257 253 242 233 226 213 197 185 183 189 195 198 199 199 199 199 200 198 194 189 188 187 188 193 198 198 198 199 195 196 204 211 217 221 221 221 223 220 216 213 211 206 199 191 201 218 225 235 239 229 217 219 222 221 220 216 208
349 346 342 341 342 341 341 341 339 338 340 343 339 325 308 291 281 276 269 265 270 275 279 282 281 278 277 276 273 271 264 257 257 249 237 229 217 200 188 182 185 193 198 199 199 199 200 200 198 193 186 183 183 185 192 198 198 200 200 196 192 197 206 213 218 219 219 222 221 218 218 214 206 199 192 201 221 223 224 231 234 234 234 231 228 227 224 218
352 351 347 345 346 346 344 344 343 341 341 344 342 329 305 279 275 281 276 272 274 279 283 284 281 276 274 274 272 273 272 265 262 258 242 231 219 203 192 185 182 188 196 200 199 199 200 200 197 191 185 181 181 184 191 197 200 201 202 200 194 195 202 207 211 214 215 218 219 215 217 217 209 202 197 202 218 224 223 228 234 240 241 236 232 231 225 219
353 353 352 351 351 350 348 347 347 345 342 344 345 335 309 270 261 280 287 285 282 279 280 282 281 276 273 273 272 272 277 273 269 268 249 232 222 208 198 190 182 182 191 199 200 199 200 200 196 189 184 180 180 183 189 194 199 200 201 202 200 198 201 203 204 208 209 210 213 209 206 211 213 208 204 206 215 221 225 230 236 241 242 238 231 229 223 217
352 354 354 355 355 353 351 350 349 347 345 345 346 341 317 277 271 281 288 293 290 284 282 280 277 274 271 273 275 275 278 275 271 273 257 235 225 214 205 197 187 179 184 194 200 199 199 200 196 188 183 180 179 183 187 189 194 197 198 201 203 202 202 200 199 201 200 198 204 203 198 203 213 214 211 210 215 220 224 229 234 239 240 236 229 225 217 211
Height
5883 5883 5882 5881 5881 5881 5880 5880 5879 5879 5878 5878 5877 5877 5877 5876 5876 5875 5875 5875 5875 5876 5876 5876 5876 5876 5876 5877 5876 5876 5876 5876 5876 5876 5875 5876 5878 5879 5881 5881 5882 5883 5884 5886 5889 5890 5891 5891 5893 5894 5895 5896 5897 5898 5899 5899 5899 5900 5900 5901 5902 5902 5900 5901 5902 5902 5903 5903 5903 5905 5905 5904 5905 5906 5906 5905 5904 5905 5906 5907 5908 5909 5909 5910 5910 5911 5911 5912
5881 5880 5880 5879 5879 5878 5878 5877 5877 5877 5876 5876 5875 5875 5875 5874 5874 5874 5873 5873 5873 5874 5874 5874 5874 5874 5875 5875 5875 5875 5875 5875 5874 5873 5874 5876 5878 5878 5879 5880 5881 5882 5883 5885 5887 5888 5889 5889 5891 5892 5893 5894 5895 5897 5898 5898 5899 5900 5900 5900 5901 5901 5900 5900 5900 5901 5902 5903 5903 5904 5904 5905 5905 5906 5905 5904 5904 5906 5907 5907 5908 5909 5909 5910 5910 5911 5911 5912
5879 5878 5877 5877 5876 5876 5875 5875 5874 5874 5874 5873 5873 5873 5872 5872 5872 5872 5871 5871 5871 5871 5872 5873 5873 5873 5873 5873 5874 5874 5874 5873 5872 5872 5873 5876 5876 5876 5877 5879 5880 5881 5882 5883 5884 5886 5886 5887 5889 5890 5891 5893 5894 5896 5898 5898 5898 5899 5899 5900 5901 5901 5900 5900 5899 5900 5901 5901 5902 5903 5904 5905 5905 5905 5905 5905 5905 5906 5906 5907 5908 5909 5910 5909 5910 5911 5911 5911
5876 5876 5875 5874 5874 5873 5873 5872 5872 5871 5871 5871 5870 5870 5870 5870 5869 5869 5869 5868 5869 5869 5870 5871 5871 5871 5871 5871 5872 5872 5872 5871 5871 5871 5873 5874 5874 5874 5875 5877 5878 5879 5880 5881 5882 5883 5884 5885 5888 5889 5890 5892 5893 5895 5897 5897 5898 5898 5898 5899 5900 5900 5900 5900 5899 5899 5899 5899 5901 5903 5904 5905 5905 5905 5906 5906 5906 5906 5906 5907 5908 5909 5909 5909 5910 5911 5911 5911
5873 5873 5872 5872 5871 5871 5870 5870 5869 5869 5869 5868 5868 5867 5867 5867 5867 5867 5867 5866 5866 5866 5867 5868 5868 5869 5869 5869 5870 5870 5870 5869 5869 5870 5872 5872 5872 5872 5873 5874 5876 5876 5878 5879 5881 5881 5883 5885 5887 5888 5890 5891 5893 5895 5896 5896 5897 5898 5898 5898 5899 5900 5900 5900 5898 5898 5898 5898 5900 5901 5903 5904 5904 5905 5905 5905 5906 5906 5906 5907 5907 5909 5909 5909 5910 5910 5910 5911
5870 5870 5869 5869 5868 5868 5867 5867 5867 5866 5866 5866 5865 5864 5864 5864 5864 5864 5864 5864 5864 5864 5864 5865 5866 5866 5867 5867 5867 5868 5868 5867 5867 5869 5870 5869 5869 5869 5870 5872 5873 5874 5876 5878 5879 5880 5882 5884 5885 5887 5889 5890 5892 5894 5894 5895 5896 5897 5898 5898 5899 5899 5899 5899 5898 5898 5898 5898 5898 5900 5902 5904 5904 5904 5905 5905 5906 5906 5906 5907 5907 5908 5909 5909 5909 5910 5910 5910
5867 5866 5866 5865 5865 5864 5864 5864 5863 5863 5863 5863 5862 5862 5861 5861 5861 5861 5861 5861 5861 5861 5862 5862 5863 5864 5864 5865 5865 5866 5865 5866 5866 5866 5867 5867 5867 5867 5868 5870 5871 5873 5875 5876 5877 5878 5881 5882 5884 5886 5887 5889 5891 5892 5892 5894 5895 5896 5897 5898 5898 5898 5898 5898 5898 5898 5899 5898 5898 5899 5901 5902 5903 5904 5904 5905 5906 5907 5906 5907 5907 5908 5909 5910 5909 5909 5910 5910
5863 5863 5862 5861 5861 5861 5860 5860 5859 5859 5859 5859 5859 5859 5858 5858 5858 5858 5858 5858 5858 5859 5859 5860 5860 5861 5862 5862 5863 5863 5862 5864 5864 5863 5864 5866 5865 5866 5867 5868 5869 5871 5872 5873 5875 5876 5878 5881 5883 5884 5886 5888 5889 5889 5890 5892 5894 5895 5896 5897 5897 5897 5897 5898 5898 5898 5898 5899 5898 5898 5900 5902 5902 5903 5904 5905 5906 5906 5906 5906 5907 5908 5909 5910 5909 5909 5909 5910
5860 5859 5858 5858 5857 5857 5856 5856 5855 5855 5855 5855 5855 5855 5855 5855 5855 5855 5855 5855 5856 5856 5856 5857 5858 5858 5859 5860 5860 5859 5860 5863 5862 5860 5862 5864 5864 5864 5865 5866 5867 5868 5869 5871 5872 5874 5876 5879 5881 5883 5885 5885 5886 5887 5888 5890 5893 5894 5894 5895 5895 5896 5896 5897 5897 5897 5898 5898 5898 5899 5899 5900 5902 5902 5904 5905 5906 5905 5905 5905 5906 5907 5909 5909 5909 5909 5909 5910
5856 5855 5854 5854 5853 5853 5852 5851 5851 5851 5851 5851 5851 5851 5851 5851 5851 5852 5852 5852 5852 5852 5853 5854 5855 5856 5856 5858 5857 5855 5857 5860 5860 5859 5859 5861 5862 5862 5863 5864 5865 5866 5867 5869 5870 5873 5875 5877 5879 5880 5881 5881 5883 5885 5886 5889 5891 5891 5891 5892 5893 5894 5895 5895 5896 5897 5897 5898 5898 5898 5898 5898 5900 5903 5905 5906 5906 5906 5905 5905 5906 5907 5908 5909 5909 5910 5910 5910
5852 5851 5850 5850 5849 5848 5848 5847 5847 5846 5846 5846 5846 5846 5847 5847 5847 5847 5848 5849 5849 5849 5850 5851 5852 5853 5854 5855 5854 5851 5854 5857 5858 5857 5857 5858 5860 5860 5861 5862 5863 5863 5864 5867 5869 5870 5872 5873 5875 5876 5877 5879 5881 5882 5884 5887 5888 5889 5889 5890 5891 5891 5892 5894 5895 5896 5897 5897 5897 5898 5897 5897 5900 5902 5904 5906 5906 5905 5905 5905 5906 5907 5907 5908 5909 5910 5910 5910
5848 5847 5846 5845 5844 5844 5843 5843 5842 5842 5842 5842 5842 5842 5842 5842 5842 5843 5843 5844 5845 5845 5846 5847 5848 5849 5851 5852 5850 5848 5851 5854 5855 5856 5855 5855 5856 5857 5859 5859 5860 5861 5862 5864 5866 5867 5868 5869 5870 5872 5875 5877 5878 5879 5882 5884 5885 5886 5886 5888 5889 5889 5890 5892 5893 5894 5896 5896 5896 5897 5897 5897 5900 5902 5903 5905 5905 5904 5904 5905 5906 5907 5907 5907 5908 5909 5910 5910
5843 5842 5841 5841 5840 5839 5838 5838 5837 5837 5837 5837 5837 5837 5837 5838 5838 5838 5839 5839 5840 5841 5842 5843 5845 5846 5848 5849 5845 5845 5849 5851 5853 5854 5853 5851 5852 5854 5856 5856 5857 5858 5859 5861 5862 5863 5865 5866 5868 5871 5872 5873 5875 5877 5880 5881 5881 5882 5883 5885 5887 5888 5889 5890 5891 5893 5894 5895 5895 5896 5896 5896 5899 5901 5903 5905 5905 5904 5904 5905 5906 5907 5907 5907 5908 5909 5909 5910
5839 5838 5837 5836 5835 5834 5834 5833 5832 5832 5832 5831 5831 5831 5832 5833 5833 5834 5834 5835 5835 5836 5837 5838 5841 5842 5845 5846 5840 5841 5846 5848 5851 5850 5849 5847 5848 5851 5852 5853 5855 5855 5857 5857 5858 5860 5861 5863 5865 5866 5868 5871 5874 5874 5875 5876 5876 5878 5880 5881 5883 5885 5887 5888 5889 5891 5892 5893 5894 5895 5896 5896 5897 5900 5903 5905 5905 5904 5904 5905 5906 5906 5907 5907 5907 5908 5909 5909
5835 5833 5832 5832 5831 5829 5829 5828 5828 5827 5826 5826 5826 5826 5827 5827 5828 5829 5829 5829 5830 5831 5832 5834 5836 5838 5842 5842 5836 5838 5842 5845 5846 5844 5844 5844 5845 5848 5849 5850 5852 5853 5853 5854 5855 5857 5858 5859 5860 5863 5866 5869 5869 5870 5871 5872 5873 5874 5876 5878 5881 5883 5886 5887 5888 5890 5891 5891 5892 5894 5896 5895 5896 5899 5901 5903 5904 5904 5904 5904 5905 5906 5907 5907 5907 5907 5907 5908
5831 5829 5827 5827 5826 5825 5824 5823 5823 5822 5821 5821 5820 5820 5821 5821 5823 5824 5824 5824 5824 5825 5827 5828 5831 5833 5837 5837 5833 5834 5837 5839 5841 5840 5843 5843 5842 5845 5846 5847 5849 5850 5850 5851 5852 5853 5854 5855 5857 5861 5863 5864 5864 5868 5870 5869 5870 5872 5875 5877 5880 5881 5883 5885 5886 5888 5889 5889 5890 5892 5895 5894 5894 5897 5899 5901 5903 5903 5904 5904 5904 5905 5906 5906 5906 5907 5907 5907
5826 5824 5822 5821 5821 5820 5818 5818 5818 5817 5816 5816 5815 5815 5815 5815 5817 5818 5819 5818 5819 5819 5821 5823 5826 5827 5831 5832 5830 5831 5831 5834 5837 5838 5841 5841 5839 5840 5843 5844 5845 5846 5847 5848 5848 5849 5850 5852 5855 5857 5859 5860 5863 5865 5865 5865 5869 5872 5874 5877 5878 5880 5881 5883 5884 5886 5887 5887 5888 5891 5893 5892 5891 5894 5897 5899 5901 5902 5904 5904 5904 5905 5906 5906 5907 5907 5907 5907
5820 5819 5817 5815 5815 5814 5812 5812 5812 5811 5811 5810 5810 5810 5810 5810 5811 5813 5813 5812 5813 5813 5814 5817 5819 5822 5825 5826 5826 5827 5827 5829 5832 5835 5838 5838 5837 5836 5839 5841 5841 5842 5843 5844 5846 5846 5847 5849 5851 5853 5854 5856 5859 5861 5862 5865 5870 5872 5874 5875 5877 5878 5880 5881 5883 5885 5885 5886 5888 5889 5891 5891 5889 5891 5894 5897 5900 5902 5902 5903 5904 5905 5905 5906 5906 5907 5907 5906
5815 5813 5811 5809 5808 5807 5806 5805 5805 5805 5804 5803 5804 5804 5804 5805 5805 5807 5807 5807 5807 5806 5807 5810 5813 5816 5820 5821 5820 5821 5821 5823 5826 5830 5833 5834 5834 5834 5835 5837 5837 5838 5839 5841 5843 5844 5845 5846 5846 5848 5852 5855 5858 5860 5863 5866 5869 5870 5872 5873 5875 5877 5879 5880 5882 5883 5884 5885 5887 5888 5890 5891 5888 5888 5892 5896 5899 5901 5901 5902 5903 5905 5906 5905 5906 5907 5907 5907
5809 5807 5806 5803 5801 5800 5799 5798 5798 5797 5797 5797 5796 5797 5797 5799 5800 5801 5803 5801 5798 5799 5802 5804 5807 5811 5815 5815 5813 5814 5817 5818 5821 5825 5827 5828 5829 5829 5831 5832 5833 5833 5835 5839 5841 5841 5841 5841 5843 5849 5853 5855 5857 5859 5861 5863 5865 5867 5868 5870 5872 5875 5877 5879 5880 5881 5882 5883 5885 5887 5889 5890 5888 5887 5890 5894 5898 5900 5900 5900 5902 5905 5906 5905 5905 5906 5906 5907
5802 5800 5799 5796 5794 5793 5792 5791 5790 5790 5789 5789 5789 5789 5790 5791 5794 5795 5798 5797 5789 5792 5799 5798 5800 5806 5809 5808 5806 5808 5811 5812 5815 5818 5821 5823 5823 5823 5825 5828 5829 5830 5834 5837 5837 5836 5835 5837 5844 5850 5851 5851 5853 5855 5857 5859 5862 5863 5865 5868 5869 5872 5875 5876 5878 5880 5880 5881 5884 5886 5887 5888 5887 5886 5888 5892 5896 5899 5898 5899 5901 5903 5905 5905 5904 5904 5905 5906
5795 5793 5791 5789 5787 5785 5784 5783 5782 5782 5781 5781 5781 5781 5782 5783 5786 5787 5792 5791 5784 5786 5791 5790 5793 5797 5801 5801 5798 5801 5805 5807 5810 5812 5814 5817 5817 5818 5821 5824 5825 5829 5832 5831 5830 5830 5831 5839 5846 5847 5846 5847 5848 5849 5852 5855 5858 5860 5862 5864 5866 5870 5872 5872 5874 5877 5878 5879 5882 5883 5884 5887 5887 5884 5886 5890 5894 5897 5897 5898 5900 5901 5903 5904 5903 5903 5904 5905
5788 5786 5784 5782 5779 5777 5776 5775 5774 5773 5773 5773 5772 5773 5774 5775 5777 5779 5782 5782 5779 5781 5781 5782 5786 5790 5795 5796 5791 5794 5800 5802 5805 5806 5807 5810 5812 5814 5816 5818 5822 5826 5826 5824 5826 5827 5832 5842 5844 5841 5842 5843 5844 5846 5848 5851 5853 5856 5858 5861 5865 5869 5870 5869 5871 5874 5876 5878 5880 5882 5883 5886 5885 5881 5882 5886 5891 5894 5895 5896 5897 5899 5902 5903 5902 5902 5903 5904
5782 5779 5776 5775 5772 5769 5768 5767 5766 5765 5764 5764 5763 5764 5765 5766 5769 5771 5772 5771 5771 5775 5775 5776 5780 5782 5787 5789 5784 5788 5793 5795 5798 5800 5801 5803 5807 5809 5810 5813 5816 5819 5820 5821 5823 5825 5832 5839 5837 5835 5838 5840 5841 5842 5843 5845 5848 5852 5854 5858 5864 5868 5869 5870 5871 5872 5873 5875 5878 5880 5882 5883 5882 5878 5878 5883 5887 5891 5893 5894 5895 5897 5900 5901 5901 5901 5902 5903
5774 5772 5769 5768 5766 5763 5761 5760 5758 5757 5756 5755 5755 5755 5756 5757 5759 5762 5764 5761 5762 5768 5768 5770 5773 5774 5778 5781 5780 5781 5785 5789 5793 5794 5796 5797 5800 5802 5804 5807 5810 5813 5816 5817 5819 5821 5828 5832 5830 5830 5833 5835 5837 5838 5840 5843 5846 5849 5851 5857 5863 5867 5868 5869 5869 5869 5870 5871 5874 5877 5878 5880 5881 5878 5877 5881 5884 5888 5890 5891 5893 5895 5897 5899 5900 5901 5901 5901
5767 5765 5762 5761 5760 5757 5754 5753 5751 5750 5749 5747 5746 5746 5747 5748 5749 5752 5754 5751 5754 5761 5760 5761 5765 5766 5770 5774 5774 5776 5779 5784 5786 5786 5789 5791 5793 5796 5797 5800 5803 5806 5810 5812 5813 5816 5823 5826 5824 5825 5828 5831 5834 5835 5838 5840 5842 5845 5850 5857 5861 5863 5865 5865 5865 5865 5866 5868 5871 5873 5874 5877 5879 5877 5878 5880 5882 5885 5887 5889 5891 5893 5894 5897 5899 5900 5900 5900
5761 5759 5757 5754 5753 5752 5750 5748 5746 5744 5743 5741 5739 5739 5739 5740 5740 5742 5744 5742 5747 5753 5751 5753 5758 5760 5762 5764 5768 5771 5773 5778 5779 5779 5783 5786 5787 5789 5791 5793 5797 5800 5804 5805 5806 5811 5818 5820 5819 5822 5825 5828 5829 5833 5836 5838 5840 5844 5850 5854 5855 5858 5862 5863 5863 5862 5864 5867 5867 5868 5872 5876 5876 5875 5877 5880 5881 5883 5884 5886 5889 5891 5893 5895 5897 5898 5898 5899
5756 5754 5753 5749 5747 5747 5745 5743 5741 5739 5737 5736 5734 5733 5733 5733 5733 5734 5735 5735 5740 5744 5743 5746 5750 5752 5753 5754 5760 5763 5764 5768 5771 5772 5775 5777 5780 5783 5786 5788 5791 5794 5797 5798 5802 5810 5815 5815 5816 5820 5821 5824 5828 5832 5835 5835 5838 5844 5847 5848 5850 5854 5858 5861 5861 5860 5863 5864 5861 5862 5868 5871 5872 5874 5877 5878 5878 5879 5881 5884 5887 5889 5892 5894 5895 5896 5896 5897
5753 5750 5749 5745 5742 5740 5738 5737 5737 5734 5732 5731 5730 5729 5729 5729 5728 5728 5728 5728 5732 5735 5737 5739 5740 5742 5743 5745 5749 5750 5752 5756 5757 5760 5763 5765 5769 5774 5778 5782 5784 5787 5790 5793 5798 5805 5809 5811 5812 5814 5816 5821 5826 5830 5831 5831 5835 5841 5843 5844 5847 5850 5854 5858 5858 5859 5860 5858 5856 5859 5862 5865 5868 5871 5873 5873 5873 5875 5879 5883 5885 5887 5890 5892 5893 5894 5894 5895
5749 5746 5744 5741 5738 5735 5731 5729 5729 5729 5727 5726 5725 5724 5724 5724 5723 5723 5722 5721 5724 5727 5730 5731 5729 5732 5734 5734 5736 5739 5744 5746 5744 5749 5752 5753 5760 5765 5770 5774 5775 5779 5784 5787 5791 5796 5802 5804 5804 5807 5812 5817 5821 5824 5826 5827 5832 5836 5837 5839 5842 5844 5848 5852 5854 5857 5855 5850 5853 5858 5858 5860 5862 5865 5867 5867 5869 5873 5877 5880 5882 5885 5886 5888 5891 5891 5892 5892
5746 5742 5739 5737 5733 5730 5727 5724 5722 5722 5721 5720 5720 5719 5719 5718 5716 5717 5715 5714 5717 5719 5721 5720 5720 5724 5724 5723 5728 5733 5737 5736 5736 5740 5743 5745 5751 5755 5760 5764 5767 5771 5775 5778 5782 5788 5792 5794 5797 5802 5807 5811 5814 5818 5821 5823 5826 5829 5831 5834 5836 5839 5842 5845 5847 5850 5845 5843 5852 5857 5856 5856 5855 5859 5864 5865 5869 5872 5874 5877 5880 5882 5884 5885 5888 5889 5889 5890
5741 5737 5734 5732 5728 5725 5723 5720 5718 5716 5714 5714 5714 5712 5713 5712 5710 5711 5710 5708 5709 5711 5713 5713 5714 5717 5714 5717 5725 5726 5726 5727 5729 5734 5739 5741 5744 5748 5754 5758 5761 5763 5766 5771 5774 5777 5784 5790 5793 5797 5801 5804 5808 5812 5814 5816 5820 5823 5825 5828 5830 5833 5835 5836 5839 5840 5836 5840 5851 5855 5854 5852 5851 5856 5861 5864 5867 5869 5871 5874 5878 5880 5881 5883 5885 5886 5887 5888
5737 5733 5729 5726 5723 5719 5717 5715 5713 5711 5709 5708 5707 5706 5706 5706 5705 5705 5705 5705 5704 5703 5706 5707 5708 5708 5706 5713 5718 5715 5716 5720 5722 5727 5732 5734 5737 5743 5749 5753 5758 5760 5763 5767 5766 5769 5779 5784 5787 5791 5796 5798 5801 5805 5808 5810 5814 5817 5820 5822 5824 5826 5828 5829 5832 5834 5834 5840 5850 5854 5852 5848 5848 5854 5859 5861 5865 5867 5868 5872 5875 5878 5880 5881 5883 5884 5885 5885
5731 5729 5725 5721 5717 5713 5712 5711 5708 5706 5704 5702 5701 5700 5700 5699 5699 5699 5699 5699 5699 5698 5699 5700 5702 5700 5699 5705 5707 5706 5710 5713 5714 5719 5723 5725 5729 5734 5738 5743 5748 5751 5752 5755 5757 5763 5771 5776 5782 5788 5791 5792 5795 5800 5805 5808 5811 5815 5819 5822 5822 5824 5826 5828 5831 5833 5834 5840 5849 5852 5847 5843 5846 5852 5858 5862 5864 5864 5866 5868 5872 5875 5877 5879 5881 5882 5882 5883
5725 5723 5720 5716 5712 5707 5706 5705 5703 5701 5699 5697 5696 5694 5693 5693 5693 5694 5693 5693 5693 5693 5693 5693 5695 5693 5692 5695 5697 5699 5703 5704 5706 5711 5714 5717 5720 5723 5728 5730 5730 5730 5732 5738 5746 5754 5760 5768 5779 5782 5783 5788 5792 5798 5803 5805 5808 5812 5817 5818 5819 5823 5826 5829 5831 5832 5836 5840 5845 5846 5841 5840 5845 5850 5856 5861 5861 5862 5863 5864 5868 5872 5874 5876 5878 5880 5881 5882
5719 5717 5713 5711 5708 5703 5701 5700 5698 5696 5694 5693 5691 5689 5688 5687 5687 5688 5688 5687 5686 5687 5688 5688 5688 5688 5687 5689 5690 5693 5696 5697 5700 5704 5706 5709 5710 5714 5719 5719 5717 5719 5724 5733 5743 5749 5753 5763 5772 5774 5777 5785 5790 5795 5798 5800 5804 5808 5811 5813 5818 5823 5824 5826 5829 5832 5835 5836 5839 5841 5838 5839 5843 5847 5853 5857 5858 5859 5860 5861 5864 5868 5871 5873 5876 5879 5880 5881
5715 5711 5708 5706 5704 5699 5696 5694 5693 5691 5689 5688 5686 5683 5682 5682 5682 5682 5681 5680 5680 5681 5682 5682 5682 5681 5682 5684 5685 5685 5687 5690 5694 5696 5698 5701 5703 5706 5710 5709 5711 5717 5722 5729 5738 5742 5746 5755 5763 5766 5773 5781 5787 5791 5793 5796 5800 5803 5807 5812 5817 5819 5820 5823 5826 5828 5829 5830 5833 5837 5836 5837 5840 5844 5850 5854 5854 5856 5857 5858 5862 5864 5866 5869 5873 5876 5879 5881
5712 5708 5705 5702 5699 5695 5692 5690 5688 5686 5683 5682 5679 5677 5676 5675 5675 5676 5674 5673 5674 5675 5675 5675 5675 5675 5676 5677 5676 5675 5679 5684 5686 5688 5690 5692 5695 5699 5701 5703 5708 5713 5719 5727 5733 5734 5738 5746 5754 5760 5768 5776 5782 5784 5786 5789 5794 5799 5806 5810 5811 5812 5815 5817 5819 5821 5823 5825 5828 5832 5834 5835 5837 5841 5847 5850 5851 5853 5855 5856 5859 5861 5863 5865 5869 5873 5876 5878
5709 5705 5702 5699 5695 5692 5689 5686 5683 5680 5678 5675 5673 5671 5670 5669 5669 5669 5668 5668 5668 5668 5668 5668 5669 5669 5669 5668 5667 5667 5672 5677 5680 5681 5682 5684 5688 5692 5695 5699 5702 5707 5715 5722 5727 5730 5735 5740 5747 5756 5763 5768 5771 5774 5778 5783 5789 5795 5799 5802 5805 5808 5811 5814 5815 5817 5820 5821 5824 5828 5830 5832 5835 5840 5845 5847 5848 5851 5853 5853 5854 5857 5860 5862 5866 5869 5873 5875
5707 5703 5700 5697 5693 5689 5686 5682 5679 5676 5673 5670 5667 5665 5663 5662 5662 5662 5662 5663 5662 5662 5662 5662 5663 5663 5662 5660 5659 5659 5665 5670 5672 5672 5673 5677 5682 5686 5689 5693 5696 5701 5708 5713 5719 5725 5730 5734 5744 5754 5757 5758 5761 5767 5774 5781 5785 5788 5790 5793 5798 5802 5806 5810 5812 5814 5817 5818 5821 5824 5826 5829 5835 5839 5842 5844 5846 5848 5850 5851 5852 5854 5857 5860 5862 5866 5869 5872
5705 5701 5697 5694 5689 5685 5681 5678 5675 5671 5668 5665 5661 5659 5657 5656 5655 5655 5656 5658 5657 5655 5656 5657 5657 5656 5656 5655 5653 5653 5658 5661 5662 5664 5668 5673 5678 5681 5683 5687 5692 5697 5702 5707 5714 5720 5723 5728 5739 5747 5748 5750 5756 5764 5775 5782 5784 5786 5787 5790 5794 5797 5800 5804 5806 5809 5813 5814 5817 5821 5824 5828 5833 5836 5838 5840 5842 5844 5847 5850 5851 5852 5855 5857 5859 5862 5866 5869
5702 5698 5695 5691 5687 5682 5677 5673 5671 5667 5663 5660 5656 5653 5651 5650 5649 5649 5650 5652 5651 5650 5651 5651 5651 5651 5650 5648 5647 5649 5650 5650 5652 5658 5664 5668 5671 5674 5677 5681 5687 5692 5696 5701 5707 5713 5718 5723 5732 5740 5743 5748 5755 5762 5770 5776 5781 5784 5785 5789 5793 5795 5797 5800 5802 5807 5810 5812 5815 5819 5822 5827 5830 5832 5834 5837 5839 5841 5844 5846 5847 5849 5851 5854 5856 5859 5863 5866
5698 5694 5691 5688 5684 5680 5675 5670 5667 5662 5658 5655 5651 5647 5646 5645 5644 5644 5645 5647 5646 5646 5646 5645 5645 5646 5645 5643 5643 5643 5640 5639 5646 5654 5658 5661 5664 5668 5672 5676 5681 5686 5690 5695 5701 5707 5714 5719 5727 5736 5742 5748 5756 5760 5762 5767 5774 5778 5780 5784 5789 5791 5795 5800 5803 5807 5809 5810 5814 5817 5819 5824 5828 5829 5831 5834 5836 5839 5840 5842 5843 5845 5848 5851 5853 5856 5860 5863
5696 5690 5686 5683 5680 5676 5673 5668 5664 5659 5655 5651 5646 5643 5642 5641 5639 5639 5641 5641 5641 5642 5642 5641 5641 5641 5640 5639 5638 5636 5633 5634 5641 5646 5649 5653 5657 5661 5666 5670 5675 5680 5685 5690 5695 5700 5707 5713 5722 5732 5738 5745 5752 5755 5757 5760 5765 5770 5775 5780 5784 5788 5793 5797 5800 5803 5805 5808 5812 5814 5816 5822 5825 5826 5828 5831 5833 5835 5837 5838 5841 5843 5845 5848 5851 5854 5857 5860
5694 5688 5682 5679 5676 5672 5668 5664 5660 5656 5652 5647 5643 5640 5639 5637 5635 5635 5636 5637 5637 5638 5637 5637 5637 5637 5636 5635 5634 5632 5631 5631 5635 5638 5640 5644 5650 5655 5660 5665 5670 5675 5679 5684 5689 5693 5700 5707 5715 5724 5730 5736 5742 5748 5752 5754 5757 5763 5771 5776 5780 5784 5787 5791 5795 5797 5799 5804 5808 5809 5813 5820 5822 5823 5826 5829 5830 5832 5834 5836 5838 5840 5843 5846 5849 5852 5854 5857
5691 5687 5681 5676 5672 5668 5664 5660 5656 5652 5649 5644 5639 5636 5634 5633 5632 5632 5633 5633 5634 5634 5634 5633 5633 5633 5632 5631 5630 5629 5629 5629 5629 5631 5634 5638 5644 5649 5655 5660 5666 5670 5673 5678 5684 5689 5695 5700 5707 5715 5722 5729 5736 5743 5747 5749 5752 5757 5763 5769 5775 5780 5783 5787 5790 5792 5796 5801 5804 5807 5812 5817 5820 5821 5824 5827 5828 5829 5831 5833 5836 5838 5840 5843 5847 5849 5852 5855
5688 5683 5679 5674 5669 5664 5659 5656 5651 5648 5645 5641 5636 5633 5631 5630 5629 5629 5630 5631 5631 5631 5631 5630 5629 5629 5629 5628 5627 5626 5626 5625 5624 5625 5628 5632 5637 5644 5649 5655 5660 5664 5668 5673 5679 5685 5690 5694 5701 5710 5719 5726 5733 5739 5742 5745 5749 5753 5757 5763 5769 5775 5779 5782 5785 5789 5794 5798 5801 5806 5811 5814 5816 5819 5822 5825 5826 5827 5828 5831 5834 5837 5838 5841 5844 5847 5849 5852
5685 5680 5674 5670 5667 5662 5656 5652 5648 5644 5641 5637 5633 5631 5629 5628 5628 5628 5628 5629 5628 5627 5627 5627 5626 5626 5625 5625 5624 5623 5622 5621 5620 5620 5622 5626 5631 5638 5644 5649 5654 5659 5663 5668 5674 5680 5685 5690 5697 5706 5715 5723 5730 5734 5736 5740 5745 5749 5753 5758 5764 5770 5775 5778 5782 5787 5791 5794 5799 5805 5808 5811 5815 5817 5820 5822 5824 5825 5826 5828 5832 5834 5836 5839 5842 5845 5847 5849
5683 5678 5672 5667 5663 5659 5655 5650 5646 5642 5639 5635 5631 5629 5627 5626 5626 5626 5627 5627 5625 5624 5624 5624 5622 5622 5622 5621 5620 5619 5619 5617 5616 5617 5618 5620 5626 5633 5639 5644 5649 5654 5659 5664 5670 5676 5681 5686 5693 5702 5712 5720 5725 5729 5733 5737 5741 5746 5750 5755 5760 5767 5772 5776 5781 5785 5789 5792 5798 5802 5805 5809 5813 5815 5818 5820 5821 5822 5824 5826 5829 5831 5834 5837 5840 5842 5844 5846
5681 5676 5671 5666 5661 5656 5652 5648 5644 5640 5637 5633 5630 5627 5625 5624 5624 5624 5624 5624 5623 5622 5621 5620 5620 5619 5618 5617 5616 5615 5615 5614 5613 5614 5616 5617 5623 5630 5634 5639 5643 5648 5654 5661 5666 5672 5677 5682 5691 5700 5709 5716 5721 5726 5731 5735 5740 5745 5750 5755 5760 5766 5771 5775 5779 5783 5786 5790 5795 5799 5802 5805 5809 5813 5815 5816 5817 5818 5820 5823 5826 5828 5831 5835 5839 5840 5842 5844
5679 5675 5670 5665 5659 5655 5650 5646 5642 5639 5635 5632 5628 5625 5624 5623 5623 5623 5622 5621 5620 5619 5618 5618 5617 5616 5615 5615 5613 5613 5613 5612 5611 5612 5613 5615 5620 5625 5630 5634 5637 5642 5650 5656 5662 5668 5674 5680 5688 5697 5705 5711 5717 5723 5729 5734 5739 5745 5750 5755 5760 5764 5767 5772 5776 5781 5785 5789 5793 5796 5799 5802 5805 5808 5811 5813 5814 5815 5818 5821 5824 5826 5829 5833 5836 5838 5840 5841
5676 5672 5668 5663 5658 5653 5648 5644 5640 5637 5634 5630 5627 5624 5623 5622 5621 5621 5620 5618 5617 5616 5615 5615 5614 5614 5613 5612 5611 5611 5610 5609 5608 5609 5610 5612 5615 5619 5624 5629 5633 5637 5644 5651 5657 5664 5671 5677 5685 5694 5701 5706 5713 5720 5726 5732 5738 5743 5747 5751 5754 5757 5761 5765 5771 5776 5780 5785 5790 5794 5798 5801 5802 5804 5807 5809 5810 5812 5815 5819 5822 5824 5827 5832 5834 5836 5838 5839